Terminal Aerodrome Forecast
Issued by NWS Wakefield, VA

Home | Current Version | Previous Version | Text Only | Print | Product List | Glossary On
Versions: 1 2 3 4 5 6 7 8 9 10 11 12 13
112
FTUS41 KAKQ 250808 AAA
TAFECG
TAF AMD
KECG 250808Z 2508/2606 VRB03KT 1/2SM FG VV009
     FM251000 14003KT 2SM BR BKN009
     FM251200 14004KT 4SM BR SCT009 SCT250
     FM251400 19010KT P6SM SCT250
     FM260000 24012G20KT P6SM BKN040
     FM260300 31012G20KT P6SM SCT050=

USA.gov is the U.S. government's official web portal to all federal, state and local government web resources and services.